Location: Hokitika
(42.7170°S, 170.9670°E)
Time: 00:19:46
(UTC+13:00)

ISS - Pass Details

Date: 28 January 2019
Orbit: 403 x 411 km, 51.6° (Epoch: 22 February)

Event Time Altitude Azimuth Distance (km) Brightness Sun altitude
Exits shadow 05:30:16 - 357° (N) 1,776 -1.0 -10.5°
Reaches altitude 10° 05:31:16 10° 8° (N) 1,483 -1.3 -10.3°
Maximum altitude 05:33:23 16° 48° (NE) 1,180 -1.3 -10.0°
Drops below altitude 10° 05:35:31 10° 88° (E) 1,492 -0.1 -9.7°
Sets 05:38:11 0° 110° (ESE) 2,361 1.8 -9.3°
